| time (UTC) | temp C | wind direction | speed KPH | gust KPH | rain 1hr cm | rain 24hr cm | rain mn cm | humidity % | barometer mb |
| 20260506124453 | 11 | 13 | 14.5 | 16.1 | 0.00 | 0.00 | 0.00 | 84 | 1013.5 |
| 20260506123951 | 11 | 23 | 14.5 | 16.1 | 0.00 | 0.00 | 0.00 | 84 | 1013.6 |
| 20260506123449 | 11 | 15 | 14.5 | 20.9 | 0.00 | 0.00 | 0.00 | 84 | 1013.5 |
| 20260506122946 | 11 | 320 | 17.7 | 25.7 | 0.00 | 0.00 | 0.00 | 84 | 1013.6 |
| 20260506122443 | 11 | 61 | 8.0 | 11.3 | 0.00 | 0.00 | 0.00 | 84 | 1013.5 |
| 20260506121941 | 11 | 14 | 12.9 | 16.1 | 0.00 | 0.00 | 0.00 | 84 | 1013.6 |
| 20260506121438 | 11 | 21 | 16.1 | 20.9 | 0.00 | 0.00 | 0.00 | 83 | 1013.7 |
| 20260506120934 | 11 | 343 | 11.3 | 14.5 | 0.00 | 0.00 | 0.00 | 83 | 1013.3 |
| 20260506120432 | 11 | 316 | 16.1 | 20.9 | 0.00 | 0.00 | 0.00 | 82 | 1013.2 |
| 20260506115929 | 12 | 19 | 8.0 | 11.3 | 0.00 | 0.00 | 0.00 | 81 | 1013.3 |
| 20260506115427 | 12 | 36 | 12.9 | 14.5 | 0.00 | 0.00 | 0.00 | 81 | 1013.1 |
| 20260506114925 | 12 | 14 | 8.0 | 8.0 | 0.00 | 0.00 | 0.00 | 81 | 1012.7 |
| 20260506114423 | 12 | 22 | 6.4 | 9.7 | 0.00 | 0.00 | 0.00 | 80 | 1013.2 |
| 20260506113921 | 12 | 1 | 14.5 | 17.7 | 0.00 | 0.00 | 0.00 | 80 | 1012.9 |
| 20260506113418 | 12 | 353 | 14.5 | 16.1 | 0.00 | 0.00 | 0.00 | 80 | 1012.9 |
| 20260506112915 | 12 | 39 | 11.3 | 14.5 | 0.00 | 0.00 | 0.00 | 80 | 1012.6 |
| 20260506112413 | 12 | 27 | 14.5 | 16.1 | 0.00 | 0.00 | 0.00 | 79 | 1012.5 |
| 20260506111910 | 12 | 26 | 14.5 | 20.9 | 0.00 | 0.00 | 0.00 | 79 | 1012.6 |
| 20260506111408 | 12 | 5 | 9.7 | 11.3 | 0.00 | 0.00 | 0.00 | 79 | 1012.7 |
| 20260506110905 | 12 | 14 | 24.1 | 29.0 | 0.00 | 0.00 | 0.00 | 79 | 1012.5 |
| 20260506110402 | 12 | 32 | 9.7 | 12.9 | 0.00 | 0.00 | 0.00 | 78 | 1012.2 |
| 20260506105858 | 12 | 21 | 12.9 | 17.7 | 0.00 | 0.00 | 0.00 | 78 | 1012.3 |
| 20260506105355 | 12 | 337 | 14.5 | 17.7 | 0.00 | 0.00 | 0.00 | 78 | 1012.1 |
| 20260506104852 | 12 | 356 | 14.5 | 20.9 | 0.00 | 0.00 | 0.00 | 77 | 1012.1 |
| 20260506104350 | 12 | 30 | 11.3 | 14.5 | 0.00 | 0.00 | 0.00 | 77 | 1012.1 |
| 20260506103848 | 12 | 0 | 11.3 | 14.5 | 0.00 | 0.00 | 0.00 | 76 | 1011.9 |
| 20260506103345 | 12 | 39 | 11.3 | 14.5 | 0.00 | 0.00 | 0.00 | 76 | 1011.8 |
| 20260506102842 | 13 | 327 | 12.9 | 17.7 | 0.00 | 0.00 | 0.00 | 76 | 1011.7 |
| 20260506102340 | 13 | 16 | 11.3 | 12.9 | 0.00 | 0.00 | 0.00 | 76 | 1011.5 |
| 20260506101837 | 13 | 13 | 12.9 | 14.5 | 0.00 | 0.00 | 0.00 | 76 | 1011.4 |
| 20260506101333 | 13 | 36 | 11.3 | 16.1 | 0.00 | 0.00 | 0.00 | 76 | 1011.7 |
| 20260506100831 | 13 | 23 | 11.3 | 20.9 | 0.00 | 0.00 | 0.00 | 76 | 1011.5 |
| 20260506100329 | 13 | 5 | 8.0 | 11.3 | 0.00 | 0.00 | 0.00 | 76 | 1011.4 |
| 20260506095827 | 13 | 7 | 11.3 | 12.9 | 0.00 | 0.00 | 0.00 | 76 | 1011.3 |
| 20260506095324 | 13 | 12 | 14.5 | 17.7 | 0.00 | 0.00 | 0.00 | 76 | 1011.4 |
| 20260506094821 | 13 | 23 | 9.7 | 12.9 | 0.00 | 0.00 | 0.00 | 76 | 1011.1 |
| 20260506094320 | 13 | 48 | 14.5 | 17.7 | 0.00 | 0.00 | 0.00 | 76 | 1011.1 |
| 20260506093817 | 13 | 50 | 8.0 | 11.3 | 0.00 | 0.00 | 0.00 | 76 | 1011.2 |
| 20260506093314 | 13 | 36 | 11.3 | 14.5 | 0.00 | 0.00 | 0.00 | 76 | 1010.9 |
| 20260506092812 | 13 | 14 | 8.0 | 9.7 | 0.00 | 0.00 | 0.00 | 75 | 1011.0 |
| 20260506092309 | 13 | 19 | 12.9 | 14.5 | 0.00 | 0.00 | 0.00 | 75 | 1011.1 |
| 20260506091807 | 13 | 24 | 14.5 | 20.9 | 0.00 | 0.00 | 0.00 | 75 | 1011.0 |
| 20260506091304 | 13 | 348 | 11.3 | 12.9 | 0.00 | 0.00 | 0.00 | 75 | 1010.9 |
| 20260506090802 | 13 | 11 | 14.5 | 17.7 | 0.00 | 0.00 | 0.00 | 75 | 1010.6 |
| 20260506090258 | 13 | 54 | 6.4 | 8.0 | 0.00 | 0.00 | 0.00 | 75 | 1010.9 |
| 20260506085755 | 13 | 339 | 8.0 | 11.3 | 0.00 | 0.00 | 0.00 | 75 | 1010.8 |
| 20260506085251 | 13 | 30 | 12.9 | 14.5 | 0.00 | 0.00 | 0.00 | 75 | 1010.6 |
| 20260506084748 | 13 | 346 | 8.0 | 12.9 | 0.00 | 0.00 | 0.00 | 75 | 1010.5 |
| 20260506084244 | 13 | 336 | 11.3 | 11.3 | 0.00 | 0.00 | 0.00 | 75 | 1010.7 |
| 20260506083742 | 13 | 70 | 9.7 | 11.3 | 0.00 | 0.00 | 0.00 | 75 | 1010.6 |
| 20260506083239 | 13 | 27 | 8.0 | 11.3 | 0.00 | 0.00 | 0.00 | 75 | 1010.6 |
| 20260506082737 | 13 | 326 | 12.9 | 16.1 | 0.00 | 0.00 | 0.00 | 75 | 1010.4 |
| 20260506082232 | 13 | 348 | 4.8 | 4.8 | 0.00 | 0.00 | 0.00 | 75 | 1010.5 |
| 20260506081730 | 13 | 306 | 14.5 | 17.7 | 0.00 | 0.00 | 0.00 | 75 | 1010.4 |
| 20260506081227 | 13 | 81 | 3.2 | 4.8 | 0.00 | 0.00 | 0.00 | 75 | 1010.5 |
| 20260506080725 | 13 | 52 | 9.7 | 11.3 | 0.00 | 0.00 | 0.00 | 75 | 1010.7 |
| 20260506080221 | 13 | 31 | 11.3 | 12.9 | 0.00 | 0.00 | 0.00 | 75 | 1010.5 |
| 20260506073205 | 13 | 73 | 3.2 | 8.0 | 0.00 | 0.00 | 0.00 | 76 | 1010.1 |
| 20260506072702 | 13 | 26 | 8.0 | 9.7 | 0.00 | 0.00 | 0.00 | 76 | 1009.7 |
| 20260506072200 | 13 | 21 | 8.0 | 9.7 | 0.00 | 0.00 | 0.00 | 76 | 1009.9 |
| 20260506071657 | 13 | 355 | 12.9 | 16.1 | 0.00 | 0.00 | 0.00 | 77 | 1009.8 |
| 20260506071155 | 14 | 45 | 8.0 | 12.9 | 0.00 | 0.00 | 0.00 | 77 | 1009.9 |
| 20260506070651 | 14 | 44 | 6.4 | 9.7 | 0.00 | 0.00 | 0.00 | 77 | 1010.2 |
| 20260506070148 | 14 | 356 | 8.0 | 11.3 | 0.00 | 0.00 | 0.00 | 77 | 1010.2 |
| 20260506062126 | 15 | 19 | 17.7 | 20.9 | 0.00 | 0.00 | 0.00 | 78 | 1010.2 |
| 20260506061621 | 15 | 34 | 11.3 | 14.5 | 0.00 | 0.00 | 0.00 | 78 | 1010.2 |
| 20260506061120 | 15 | 35 | 14.5 | 17.7 | 0.00 | 0.00 | 0.00 | 78 | 1010.2 |
| 20260506060618 | 15 | 13 | 4.8 | 8.0 | 0.00 | 0.00 | 0.00 | 78 | 1010.4 |
| 20260506060114 | 15 | 15 | 12.9 | 20.9 | 0.00 | 0.00 | 0.00 | 77 | 1010.2 |
| 20260506051046 | 15 | 332 | 14.5 | 24.1 | 0.00 | 0.00 | 0.00 | 77 | 1010.2 |
| 20260506050544 | 15 | 334 | 8.0 | 9.7 | 0.00 | 0.00 | 0.00 | 78 | 1010.2 |
| 20260506045034 | 16 | 309 | 12.9 | 14.5 | 0.00 | 0.00 | 0.00 | 79 | 1010.0 |
| 20260506044532 | 16 | 330 | 14.5 | 20.9 | 0.00 | 0.00 | 0.00 | 80 | 1010.0 |
| 20260506044029 | 16 | 339 | 14.5 | 22.5 | 0.00 | 0.00 | 0.00 | 80 | 1009.9 |
| 20260506043526 | 16 | 358 | 8.0 | 11.3 | 0.00 | 0.00 | 0.00 | 80 | 1010.2 |
| 20260506043025 | 16 | 17 | 9.7 | 12.9 | 0.00 | 0.00 | 0.00 | 80 | 1010.0 |
| 20260506042523 | 16 | 39 | 12.9 | 20.9 | 0.00 | 0.00 | 0.00 | 80 | 1009.9 |
| 20260506042021 | 16 | 22 | 11.3 | 12.9 | 0.00 | 0.00 | 0.00 | 80 | 1010.0 |
| 20260506041519 | 16 | 24 | 17.7 | 25.7 | 0.00 | 0.00 | 0.00 | 80 | 1010.0 |
| 20260506041016 | 16 | 18 | 11.3 | 14.5 | 0.00 | 0.00 | 0.00 | 80 | 1009.9 |
| 20260506040514 | 16 | 67 | 14.5 | 17.7 | 0.00 | 0.00 | 0.00 | 80 | 1009.8 |
| 20260506040009 | 16 | 19 | 14.5 | 17.7 | 0.00 | 0.00 | 0.00 | 80 | 1009.7 |
| 20260506035506 | 17 | 3 | 14.5 | 25.7 | 0.00 | 0.00 | 0.00 | 79 | 1009.4 |
| 20260506035003 | 17 | 324 | 14.5 | 22.5 | 0.00 | 0.00 | 0.00 | 79 | 1009.4 |
| 20260506034501 | 17 | 317 | 17.7 | 17.7 | 0.00 | 0.00 | 0.00 | 79 | 1009.4 |
| 20260506033957 | 17 | 47 | 8.0 | 9.7 | 0.00 | 0.00 | 0.00 | 79 | 1009.4 |
| 20260506033455 | 17 | 352 | 17.7 | 20.9 | 0.00 | 0.00 | 0.00 | 79 | 1009.3 |
| 20260506032951 | 17 | 29 | 8.0 | 11.3 | 0.00 | 0.00 | 0.00 | 79 | 1009.3 |
| 20260506032449 | 17 | 13 | 11.3 | 14.5 | 0.00 | 0.00 | 0.00 | 79 | 1009.3 |
| 20260506031945 | 17 | 3 | 22.5 | 27.4 | 0.00 | 0.00 | 0.00 | 79 | 1009.3 |
| 20260506031443 | 17 | 39 | 19.3 | 33.8 | 0.00 | 0.00 | 0.00 | 79 | 1009.1 |
| 20260506030940 | 17 | 11 | 11.3 | 12.9 | 0.00 | 0.00 | 0.00 | 78 | 1009.1 |
| 20260506030438 | 17 | 27 | 16.1 | 20.9 | 0.00 | 0.00 | 0.00 | 78 | 1009.0 |
| 20260506025934 | 17 | 357 | 11.3 | 14.5 | 0.00 | 0.00 | 0.00 | 78 | 1009.1 |
| 20260506025431 | 18 | 21 | 16.1 | 22.5 | 0.00 | 0.00 | 0.00 | 78 | 1009.0 |
| 20260506024928 | 18 | 25 | 14.5 | 17.7 | 0.00 | 0.00 | 0.00 | 77 | 1008.7 |
| 20260506024425 | 18 | 4 | 11.3 | 14.5 | 0.00 | 0.00 | 0.00 | 77 | 1008.7 |
| 20260506023921 | 18 | 33 | 9.7 | 12.9 | 0.00 | 0.00 | 0.00 | 77 | 1008.6 |
| 20260506023418 | 18 | 87 | 8.0 | 11.3 | 0.00 | 0.00 | 0.00 | 77 | 1008.2 |
| 20260506022914 | 20 | 10 | 16.1 | 20.9 | 0.00 | 0.00 | 0.00 | 77 | 1008.0 |
| 20260506022412 | 20 | 17 | 17.7 | 22.5 | 0.00 | 0.00 | 0.00 | 77 | 1007.7 |
| 20260506021910 | 20 | 30 | 16.1 | 17.7 | 0.00 | 0.00 | 0.00 | 76 | 1007.8 |
| 20260506021407 | 20 | 17 | 11.3 | 14.5 | 0.00 | 0.00 | 0.00 | 76 | 1007.6 |
| 20260506020903 | 20 | 16 | 14.5 | 16.1 | 0.00 | 0.00 | 0.00 | 76 | 1007.5 |
| 20260506020402 | 20 | 7 | 11.3 | 14.5 | 0.00 | 0.00 | 0.00 | 75 | 1007.2 |
| 20260506015859 | 20 | 358 | 6.4 | 11.3 | 0.00 | 0.00 | 0.00 | 75 | 1007.2 |
| 20260506015356 | 20 | 339 | 12.9 | 16.1 | 0.00 | 0.00 | 0.00 | 74 | 1007.2 |
| 20260506014853 | 20 | 32 | 14.5 | 17.7 | 0.00 | 0.00 | 0.00 | 74 | 1007.1 |
| 20260506014350 | 20 | 9 | 14.5 | 16.1 | 0.00 | 0.00 | 0.00 | 74 | 1007.0 |
| 20260506013846 | 20 | 23 | 11.3 | 12.9 | 0.00 | 0.00 | 0.00 | 74 | 1006.8 |
| 20260506013344 | 21 | 16 | 14.5 | 20.9 | 0.00 | 0.00 | 0.00 | 75 | 1006.8 |
| 20260506012840 | 21 | 36 | 24.1 | 33.8 | 0.00 | 0.00 | 0.00 | 74 | 1006.8 |
| 20260506012337 | 22 | 324 | 6.4 | 8.0 | 0.00 | 0.00 | 0.00 | 73 | 1006.5 |
| 20260506011834 | 22 | 350 | 4.8 | 8.0 | 0.00 | 0.00 | 0.00 | 72 | 1006.5 |
| 20260506011331 | 22 | 4 | 8.0 | 11.3 | 0.00 | 0.00 | 0.00 | 72 | 1006.5 |
| 20260506010828 | 22 | 351 | 4.8 | 8.0 | 0.00 | 0.00 | 0.00 | 72 | 1006.3 |
| 20260506010326 | 22 | 10 | 4.8 | 9.7 | 0.00 | 0.00 | 0.00 | 71 | 1006.3 |
| 20260506005823 | 22 | 332 | 8.0 | 11.3 | 0.00 | 0.00 | 0.00 | 71 | 1006.7 |
| 20260506005320 | 22 | 355 | 9.7 | 12.9 | 0.00 | 0.00 | 0.00 | 71 | 1006.4 |
| 20260506004816 | 22 | 6 | 12.9 | 16.1 | 0.00 | 0.00 | 0.00 | 70 | 1005.7 |
| 20260506004313 | 22 | 5 | 11.3 | 14.5 | 0.00 | 0.00 | 0.00 | 70 | 1005.8 |
| 20260506003809 | 22 | 40 | 8.0 | 9.7 | 0.00 | 0.00 | 0.00 | 69 | 1006.1 |
| 20260506003306 | 22 | 17 | 11.3 | 11.3 | 0.00 | 0.00 | 0.00 | 69 | 1006.0 |
| 20260506002802 | 22 | 7 | 6.4 | 8.0 | 0.00 | 0.00 | 0.00 | 69 | 1005.8 |
| 20260506002259 | 22 | 20 | 14.5 | 20.9 | 0.00 | 0.00 | 0.00 | 69 | 1005.5 |
| 20260506001754 | 23 | 328 | 9.7 | 12.9 | 0.00 | 0.00 | 0.00 | 69 | 1005.5 |
| 20260506001252 | 23 | 357 | 9.7 | 12.9 | 0.00 | 0.00 | 0.00 | 69 | 1005.7 |
| 20260506000749 | 23 | 95 | 8.0 | 11.3 | 0.00 | 0.00 | 0.00 | 68 | 1005.3 |
| 20260506000247 | 23 | 312 | 9.7 | 11.3 | 0.00 | 0.00 | 0.00 | 68 | 1005.6 |
| 20260505235743 | 23 | 334 | 17.7 | 27.4 | 0.00 | 0.00 | 0.00 | 67 | 1005.7 |
| 20260505235241 | 23 | 19 | 8.0 | 11.3 | 0.00 | 0.00 | 0.00 | 68 | 1005.4 |
| 20260505234737 | 23 | 293 | 17.7 | 22.5 | 0.00 | 0.00 | 0.00 | 67 | 1005.6 |
| 20260505234235 | 24 | 339 | 14.5 | 17.7 | 0.00 | 0.00 | 0.00 | 66 | 1005.4 |
| 20260505233731 | 25 | 21 | 14.5 | 17.7 | 0.00 | 0.00 | 0.00 | 66 | 1005.5 |
| 20260505233230 | 25 | 350 | 9.7 | 14.5 | 0.00 | 0.00 | 0.00 | 65 | 1005.1 |
| 20260505232726 | 25 | 53 | 11.3 | 14.5 | 0.00 | 0.00 | 0.00 | 64 | 1004.9 |
| 20260505232224 | 26 | 333 | 6.4 | 8.0 | 0.00 | 0.00 | 0.00 | 63 | 1005.1 |
| 20260505231720 | 26 | 347 | 8.0 | 9.7 | 0.00 | 0.00 | 0.00 | 62 | 1005.2 |
| 20260505231220 | 26 | 326 | 14.5 | 16.1 | 0.00 | 0.00 | 0.00 | 62 | 1005.1 |
| 20260505230717 | 26 | 31 | 11.3 | 17.7 | 0.00 | 0.00 | 0.00 | 62 | 1005.1 |
| 20260505230214 | 26 | 339 | 11.3 | 16.1 | 0.00 | 0.00 | 0.00 | 62 | 1004.8 |
| 20260505225710 | 27 | 10 | 8.0 | 11.3 | 0.00 | 0.00 | 0.00 | 62 | 1004.7 |
| 20260505225207 | 27 | 318 | 11.3 | 14.5 | 0.00 | 0.00 | 0.00 | 61 | 1004.5 |
| 20260505224702 | 28 | 338 | 14.5 | 17.7 | 0.00 | 0.00 | 0.00 | 59 | 1004.4 |
| 20260505224201 | 28 | 329 | 14.5 | 22.5 | 0.00 | 0.00 | 0.00 | 56 | 1004.4 |
| 20260505223658 | 29 | 297 | 8.0 | 11.3 | 0.00 | 0.00 | 0.00 | 52 | 1004.4 |
| 20260505223153 | 30 | 316 | 8.0 | 16.1 | 0.00 | 0.00 | 0.00 | 50 | 1004.2 |
| 20260505222650 | 30 | 357 | 9.7 | 12.9 | 0.00 | 0.00 | 0.00 | 49 | 1004.2 |
| 20260505222146 | 30 | 322 | 14.5 | 16.1 | 0.00 | 0.00 | 0.00 | 48 | 1004.0 |
| 20260505221643 | 30 | 298 | 6.4 | 9.7 | 0.00 | 0.00 | 0.00 | 47 | 1003.8 |
| 20260505221139 | 30 | 269 | 11.3 | 16.1 | 0.00 | 0.00 | 0.00 | 46 | 1003.7 |
| 20260505220637 | 30 | 333 | 9.7 | 12.9 | 0.00 | 0.00 | 0.00 | 46 | 1003.8 |
| 20260505220135 | 30 | 317 | 11.3 | 12.9 | 0.00 | 0.00 | 0.00 | 46 | 1003.7 |
| 20260505215632 | 31 | 214 | 8.0 | 11.3 | 0.00 | 0.00 | 0.00 | 46 | 1004.0 |
| 20260505215130 | 31 | 344 | 8.0 | 9.7 | 0.00 | 0.00 | 0.00 | 47 | 1003.7 |
| 20260505214628 | 33 | 285 | 17.7 | 22.5 | 0.00 | 0.00 | 0.00 | 49 | 1004.0 |
| 20260505214125 | 32 | 229 | 11.3 | 17.7 | 0.00 | 0.00 | 0.00 | 50 | 1003.8 |
| 20260505213623 | 32 | 207 | 8.0 | 12.9 | 0.00 | 0.00 | 0.00 | 48 | 1003.9 |
| 20260505213119 | 32 | 227 | 11.3 | 14.5 | 0.00 | 0.00 | 0.00 | 50 | 1003.9 |
| 20260505212615 | 32 | 358 | 6.4 | 9.7 | 0.00 | 0.00 | 0.00 | 49 | 1003.9 |
| 20260505212113 | 32 | 306 | 11.3 | 11.3 | 0.00 | 0.00 | 0.00 | 51 | 1003.8 |
| 20260505211609 | 32 | 262 | 12.9 | 16.1 | 0.00 | 0.00 | 0.00 | 49 | 1004.0 |
| 20260505211107 | 33 | 271 | 11.3 | 14.5 | 0.00 | 0.00 | 0.00 | 49 | 1004.2 |
| 20260505210603 | 33 | 96 | 1.6 | 3.2 | 0.00 | 0.00 | 0.00 | 49 | 1003.9 |
| 20260505210100 | 33 | 268 | 8.0 | 11.3 | 0.00 | 0.00 | 0.00 | 48 | 1004.1 |
| 20260505205558 | 33 | 202 | 8.0 | 11.3 | 0.00 | 0.00 | 0.00 | 48 | 1004.4 |
| 20260505205055 | 33 | 232 | 12.9 | 16.1 | 0.00 | 0.00 | 0.00 | 48 | 1004.3 |
| 20260505204552 | 34 | 242 | 8.0 | 11.3 | 0.00 | 0.00 | 0.00 | 49 | 1004.5 |
| 20260505204050 | 34 | 179 | 1.6 | 1.6 | 0.00 | 0.00 | 0.00 | 49 | 1004.4 |
| 20260505203546 | 33 | 236 | 11.3 | 12.9 | 0.00 | 0.00 | 0.00 | 51 | 1004.4 |
| 20260505203043 | 33 | 93 | 6.4 | 9.7 | 0.00 | 0.00 | 0.00 | 52 | 1004.4 |
| 20260505202539 | 33 | 206 | 12.9 | 17.7 | 0.00 | 0.00 | 0.00 | 51 | 1004.5 |
| 20260505202035 | 33 | 131 | 8.0 | 12.9 | 0.00 | 0.00 | 0.00 | 51 | 1004.6 |
| 20260505201532 | 32 | 253 | 4.8 | 9.7 | 0.00 | 0.00 | 0.00 | 53 | 1004.7 |
| 20260505201030 | 33 | 259 | 11.3 | 12.9 | 0.00 | 0.00 | 0.00 | 52 | 1004.6 |
| 20260505200527 | 33 | 301 | 8.0 | 9.7 | 0.00 | 0.00 | 0.00 | 52 | 1004.6 |
| 20260505200024 | 33 | 218 | 8.0 | 11.3 | 0.00 | 0.00 | 0.00 | 52 | 1004.4 |
| 20260505195520 | 33 | 142 | 8.0 | 12.9 | 0.00 | 0.00 | 0.00 | 52 | 1004.9 |
| 20260505195018 | 32 | 225 | 11.3 | 16.1 | 0.00 | 0.00 | 0.00 | 53 | 1004.8 |
| 20260505194515 | 32 | 226 | 4.8 | 9.7 | 0.00 | 0.00 | 0.00 | 55 | 1004.7 |
| 20260505194010 | 33 | 205 | 6.4 | 8.0 | 0.00 | 0.00 | 0.00 | 53 | 1004.8 |
| 20260505193508 | 32 | 192 | 11.3 | 14.5 | 0.00 | 0.00 | 0.00 | 53 | 1004.8 |
| 20260505193005 | 32 | 230 | 6.4 | 9.7 | 0.00 | 0.00 | 0.00 | 54 | 1004.9 |
| 20260505192503 | 32 | 228 | 11.3 | 12.9 | 0.00 | 0.00 | 0.00 | 53 | 1004.5 |
| 20260505192000 | 32 | 194 | 11.3 | 14.5 | 0.00 | 0.00 | 0.00 | 54 | 1004.7 |
| 20260505191459 | 32 | 303 | 11.3 | 16.1 | 0.00 | 0.00 | 0.00 | 56 | 1004.8 |
| 20260505190956 | 31 | 90 | 4.8 | 8.0 | 0.00 | 0.00 | 0.00 | 56 | 1004.7 |
| 20260505190450 | 31 | 229 | 11.3 | 14.5 | 0.00 | 0.00 | 0.00 | 56 | 1004.8 |
| 20260505185946 | 31 | 56 | 9.7 | 11.3 | 0.00 | 0.00 | 0.00 | 57 | 1004.7 |
| 20260505185444 | 30 | 206 | 8.0 | 9.7 | 0.00 | 0.00 | 0.00 | 59 | 1004.6 |
| 20260505184940 | 30 | 229 | 11.3 | 14.5 | 0.00 | 0.00 | 0.00 | 59 | 1004.8 |
| 20260505184437 | 30 | 190 | 11.3 | 17.7 | 0.00 | 0.00 | 0.00 | 59 | 1004.8 |
| 20260505183933 | 30 | 195 | 3.2 | 4.8 | 0.00 | 0.00 | 0.00 | 59 | 1004.8 |
| 20260505183430 | 30 | 197 | 14.5 | 24.1 | 0.00 | 0.00 | 0.00 | 58 | 1004.7 |
| 20260505182927 | 30 | 224 | 14.5 | 20.9 | 0.00 | 0.00 | 0.00 | 59 | 1004.6 |
| 20260505182424 | 30 | 221 | 11.3 | 16.1 | 0.00 | 0.00 | 0.00 | 59 | 1004.7 |
| 20260505181920 | 30 | 310 | 6.4 | 9.7 | 0.00 | 0.00 | 0.00 | 59 | 1004.8 |
| 20260505181418 | 30 | 182 | 14.5 | 20.9 | 0.00 | 0.00 | 0.00 | 59 | 1004.8 |
| 20260505180914 | 30 | 226 | 8.0 | 14.5 | 0.00 | 0.00 | 0.00 | 61 | 1005.2 |
| 20260505180411 | 30 | 131 | 11.3 | 17.7 | 0.00 | 0.00 | 0.00 | 61 | 1004.7 |
| 20260505175908 | 30 | 225 | 4.8 | 8.0 | 0.00 | 0.00 | 0.00 | 61 | 1004.9 |
| 20260505175404 | 30 | 195 | 11.3 | 17.7 | 0.00 | 0.00 | 0.00 | 60 | 1004.7 |
| 20260505174900 | 30 | 196 | 9.7 | 11.3 | 0.00 | 0.00 | 0.00 | 61 | 1004.6 |
| 20260505174358 | 30 | 230 | 11.3 | 16.1 | 0.00 | 0.00 | 0.00 | 62 | 1004.6 |
| 20260505173854 | 30 | 211 | 8.0 | 9.7 | 0.00 | 0.00 | 0.00 | 63 | 1004.7 |
| 20260505173350 | 29 | 171 | 12.9 | 16.1 | 0.00 | 0.00 | 0.00 | 63 | 1004.7 |
| 20260505172847 | 28 | 193 | 6.4 | 9.7 | 0.00 | 0.00 | 0.00 | 64 | 1004.8 |
| 20260505172345 | 29 | 224 | 14.5 | 16.1 | 0.00 | 0.00 | 0.00 | 63 | 1004.9 |
| 20260505171845 | 28 | 91 | 4.8 | 9.7 | 0.00 | 0.00 | 0.00 | 64 | 1005.0 |
| 20260505171342 | 28 | 196 | 12.9 | 16.1 | 0.00 | 0.00 | 0.00 | 65 | 1004.9 |
| 20260505170838 | 28 | 198 | 6.4 | 11.3 | 0.00 | 0.00 | 0.00 | 67 | 1005.0 |
| 20260505170335 | 27 | 221 | 9.7 | 11.3 | 0.00 | 0.00 | 0.00 | 67 | 1004.9 |
| 20260505165831 | 27 | 299 | 8.0 | 14.5 | 0.00 | 0.00 | 0.00 | 67 | 1004.9 |
| 20260505165326 | 28 | 141 | 11.3 | 14.5 | 0.00 | 0.00 | 0.00 | 67 | 1004.9 |
| 20260505164822 | 28 | 234 | 19.3 | 22.5 | 0.00 | 0.00 | 0.00 | 67 | 1004.8 |
| 20260505164319 | 27 | 211 | 11.3 | 12.9 | 0.00 | 0.00 | 0.00 | 68 | 1005.1 |
| 20260505163818 | 27 | 139 | 6.4 | 9.7 | 0.00 | 0.00 | 0.00 | 69 | 1004.9 |
| 20260505163316 | 27 | 220 | 14.5 | 17.7 | 0.00 | 0.00 | 0.00 | 69 | 1005.0 |
| 20260505162814 | 27 | 234 | 16.1 | 24.1 | 0.00 | 0.00 | 0.00 | 69 | 1004.9 |
| 20260505162310 | 27 | 72 | 11.3 | 17.7 | 0.00 | 0.00 | 0.00 | 70 | 1004.9 |
| 20260505161807 | 26 | 199 | 16.1 | 22.5 | 0.00 | 0.00 | 0.00 | 70 | 1004.8 |
| 20260505161304 | 26 | 311 | 17.7 | 22.5 | 0.00 | 0.00 | 0.00 | 70 | 1004.6 |
| 20260505160802 | 26 | 136 | 20.9 | 25.7 | 0.00 | 0.00 | 0.00 | 71 | 1004.8 |
| 20260505160259 | 26 | 197 | 20.9 | 27.4 | 0.00 | 0.00 | 0.00 | 71 | 1004.7 |
| 20260505153238 | 26 | 233 | 9.7 | 17.7 | 0.00 | 0.00 | 0.00 | 72 | 1004.5 |
| 20260505152735 | 26 | 232 | 14.5 | 17.7 | 0.00 | 0.00 | 0.00 | 71 | 1004.5 |
| 20260505152231 | 26 | 261 | 11.3 | 17.7 | 0.00 | 0.00 | 0.00 | 71 | 1004.4 |
| 20260505151726 | 26 | 185 | 16.1 | 22.5 | 0.00 | 0.00 | 0.00 | 73 | 1004.4 |
| 20260505151224 | 25 | 172 | 11.3 | 14.5 | 0.00 | 0.00 | 0.00 | 75 | 1004.5 |
| 20260505150720 | 25 | 112 | 12.9 | 14.5 | 0.00 | 0.00 | 0.00 | 75 | 1004.5 |
| 20260505150217 | 25 | 160 | 11.3 | 14.5 | 0.00 | 0.00 | 0.00 | 76 | 1004.6 |
| 20260505140645 | 23 | 160 | 19.3 | 29.0 | 0.00 | 0.00 | 0.00 | 82 | 1004.7 |
| 20260505140142 | 23 | 157 | 8.0 | 9.7 | 0.00 | 0.00 | 0.00 | 82 | 1004.6 |